Flag for U.S.A. Weather past 2 weeks in Worcester, Massachusetts, U.S.A.

Now
54 °F

Clear.


Feels Like: 50 °F
Forecast: 53 / 82 °F
Wind: 14 mph from West

Location: Worcester Regional Airport

Current Time: May 7, 2015 at 1:51:55 AM

Latest Report: May 7, 2015 at 12:54 AM


Visibility: 10 mi

Pressure: 30.22 "Hg

Humidity: 38%

Dew point: 29 °F

Location of WorcesterLocation

Historic Weather in Worcester — Graph

°F

Worcester temperature yesterday

Maximum temperature yesterday: 72 °F (at 4:54 PM)
Minimum temperature yesterday: 55 °F (at 11:54 PM)
Average temperature yesterday: 63 °F

Past Weeks' High & Low Weather Summary

 TemperatureHumidityPressure
High80 °F (May 4, 1:54 PM)89% (Apr 28, 4:54 AM)30.32 "Hg (Apr 28, 4:54 AM)
Low31 °F (Apr 25, 3:54 AM)19% (May 4, 1:54 PM)29.52 "Hg (Apr 22, 10:54 PM)
Average52 °F51%29.86 "Hg
* Reported Apr 22 12:54 AM — May 7 12:54 AM, Worcester, Weather by CustomWeather, © 2015

Note: Actual official high and low records may vary slightly from our data, if they occured in-between our weather recording intervals... More about our weather records

Advertising

Worcester weather history for previous 24 hours

 ConditionsComfort  
Time TempWeatherWind HumidityBarometerVisibility
12:54 AM
Thu, May 7
54 °FClear.14 mph38%30.22 "Hg10 mi
11:54 PM
Wed, May 6
55 °FClear.15 mph37%30.22 "Hg10 mi
10:54 PM57 °FClear.14 mph36%30.22 "Hg10 mi
9:54 PM59 °FClear.13 mph36%30.21 "Hg10 mi
8:54 PM63 °FClear.13 mph33%30.20 "Hg10 mi
7:54 PM65 °FSunny.12 mph27%30.19 "Hg10 mi
6:54 PM70 °FSunny.10 mph23%30.18 "Hg10 mi
5:54 PM72 °FSunny.9 mph20%30.19 "Hg10 mi
4:54 PM72 °FSunny.7 mph19%30.20 "Hg10 mi
3:54 PM71 °FSunny.6 mph19%30.21 "Hg10 mi
2:54 PM71 °FSunny.N/A20%30.23 "Hg10 mi
1:54 PM68 °FSunny.5 mph22%30.25 "Hg10 mi
12:54 PM67 °FSunny.3 mph21%30.28 "Hg10 mi
11:54 AM67 °FSunny.6 mph24%30.30 "Hg10 mi
10:54 AM65 °FSunny.9 mph26%30.32 "Hg10 mi
9:54 AM64 °FSunny.7 mph29%30.32 "Hg10 mi
8:54 AM60 °FSunny.8 mph32%30.31 "Hg10 mi
7:54 AM59 °FPassing clouds.7 mph32%30.30 "Hg10 mi
6:54 AM58 °FSunny.8 mph32%30.29 "Hg10 mi
5:54 AM58 °FClear.8 mph33%30.26 "Hg10 mi
4:54 AM59 °FClear.10 mph32%30.24 "Hg10 mi
3:54 AM60 °FClear.13 mph31%30.24 "Hg10 mi
2:54 AM59 °FClear.13 mph36%30.24 "Hg10 mi
1:54 AM63 °FClear.7 mph37%30.23 "Hg10 mi
Weather by CustomWeather, © 2015

See weather overviewHow to use our weather pages